Regional Weather Roundup
Issued by NWS Charleston, SC

Current Version | Previous Version | Graphics & Text | Print | Product List | Glossary On
Versions: 1 2 3 4 5 6 7 8 9 10 11 12 13 14 15 16 17 18 19 20 21 22 23 24 25 26 27 28 29 30 31 32 33 34 35 36 37 38 39 40 41 42 43 44 45 46 47 48 49 50
416 ASUS42 KCHS 111113 RWRCHS REGIONAL WEATHER ROUNDUP NATIONAL WEATHER SERVICE CHARLESTON SC 600 AM EST THU FEB 11 2016 NOTE: "FAIR" INDICATES FEW OR NO CLOUDS BELOW 12,000 FEET WITH NO SIGNIFICANT WEATHER AND/OR OBSTRUCTIONS TO VISIBILITY. NOT ALL STATIONS ARE QUALITY CONTROLLED BY THE NATIONAL WEATHER SERVICE. USE DATA WITH CAUTION...ESPECIALLY DEWPOINT OBSERVATIONS. SCZ027-030-031-034>040-042>050-111200- ...SOUTHEAST SOUTH CAROLINA... CITY SKY/WX TMP DP RH WIND PRES REMARKS N CHARLESTON CLEAR 29 17 61 W5 30.21R WCI 24 WATERFRONT PRK N/A 33 18 53 VRB3 30.04R MOUNT PLEASANT FAIR 32 19 59 CALM 30.21R JOHNS ISLAND FAIR 32 18 55 SW5 30.22R WCI 27 PINOPOLIS N/A 34 19 55 W7 30.11R WCI 28 MONCKS CORNER FAIR 25 16 68 CALM 30.20R HAZE SUMMERVILLE NOT AVBL BEAUFORT MCAS CLEAR 30 20 66 SW7 30.24R WCI 23 BEAUFORT ARPT FAIR 34 23 64 SW6 30.23R WCI 29 HILTON HEAD IS NOT AVBL WALTERBORO SUNNY 30 21 69 CALM 30.22R ALLENDALE FAIR 28 21 74 CALM 30.21R ...SOUTHERN MIDLANDS AND PEE DEE... CITY SKY/WX TMP DP RH WIND PRES REMARKS GEORGETOWN FAIR 30 18 59 CALM 30.20R KINGSTREE FAIR 25 19 80 CALM 30.19S ORANGEBURG CLEAR 30 15 53 SW5 30.19R WCI 25 BARNWELL FAIR 30 19 64 CALM 30.21R AIKEN FAIR 28 14 54 CALM 30.20R MANNING FAIR 27 19 74 CALM 30.19R COLUMBIA CLEAR 30 14 51 NW3 30.18S SUMTER CLEAR 27 15 59 W5 30.16R WCI 22 FLORENCE PTCLDY 25 15 66 SW3 30.19R MYRTLE BEACH CLEAR 28 12 50 W5 30.21R WCI 23 N MYRTLE BEACH CLEAR 29 18 63 NW3 30.18R $$ GAZ063-065-086>088-099>101-113>116-118-119-134>141-150-111200- ...SOUTHEAST GEORGIA... CITY SKY/WX TMP DP RH WIND PRES REMARKS SAVANNAH ARPT CLEAR 31 19 61 SW3 30.26R HUNTER AAF CLEAR 30 22 71 SW3 30.23R FORT STEWART PTCLDY 28 23 80 CALM 30.24R STATESBORO CLEAR 31 20 64 CALM 30.24R SYLVANIA SUNNY 28 26 90 CALM 30.24R CLAXTON FAIR 29 27 92 CALM 30.25R ...CSRA...CENTRAL AND FAR SOUTHEAST GEORGIA... CITY SKY/WX TMP DP RH WIND PRES REMARKS THOMSON CLEAR 28 22 78 CALM 30.23R AUGUSTA-BUSH CLEAR 25 16 68 CALM 30.21R AUGUSTA-DANIEL NOT AVBL SWAINSBORO FAIR 28 23 80 CALM 30.24R VIDALIA PTCLDY 30 23 74 CALM 30.24R EASTMAN FAIR 30 22 70 CALM 30.26S HAZLEHURST FAIR 32 22 66 S3 30.24R ALMA PTCLDY 28 24 85 CALM 30.26R WAYCROSS CLEAR 31 28 88 CALM 30.27S JESUP FAIR 32 28 86 CALM 30.28R BAXLEY FAIR 32 27 80 SW3 30.26R BRUNSWICK CLEAR 32 28 86 W3 30.29R SAINT SIMONS CLEAR 35 23 61 W6 30.28R WCI 30 $$ SCZ027-028-034-036>038-045-046-048>050-GAZ119-141-111200- ...LAKE AND SUPPLEMENTAL COASTAL OBSERVATIONS... STATION/POSITION TIME TEMP WIND PRES WAVE SWELL AIR SEA DIR/SP/G HT/PER HT/PER/DIR (UTC) (F) (DEG/KT/KT) (MB) (FT/S) (FT/S/D) WINYAH BAY NOT AVBL LAKE MURRAY 1000 32 290/ 8/ 13 1021.0R ACE BASIN NERRS NOT AVBL FORT PULASKI 1000 35 N/A SAPELO ISLAND 1000 38 250/ 5 1024.0S $$ ANZ835-935-AMZ111-154-330-350-352-354-370-450-454-472-111200- ...C-MAN AND BUOY OBSERVATIONS... STATION/POSITION TIME TEMP WIND PRES WAVE SWELL AIR SEA DIR/SP/G HT/PER HT/PER/DIR (UTC) (F) (DEG/KT/KT) (MB) (FT/S) (FT/S/D) BUOY 41004 1050 44 63 290/ 23/ 29 1022.1R 8/ 7 BUOY 41008 1050 44 52 290/ 14/ 17 1024.9R 2/ 4 FOLLY BEACH CMAN 1100 32 240/ 6/ 8 1023.6R CAPERS NEARSHORE 1008 37 310/ 14/ 17 1021.9R FRIPP NEARSHORE 1000 40 270/ 14/ 17 1022.6R STATION/POSITION TIME TEMP WIND PRES WAVE SWELL AIR SEA DIR/SP/G HT/PER HT/PER/DIR (UTC) (F) (DEG/KT/KT) (MB) (FT/S) (FT/S/D) 5E ST. MARYS GA 1021 55 N/A 2/14 2/ 80/14 FRYING PAN BUOY 1000 40 59 290/ 19/ 25 1020.6R BUOY 41025 1050 34 71 310/ 23/ 29 1019.5R 7/ 8 2/ 10/13 CAPE LOOKOUT NC NOT AVBL BUOY 41002 1050 52 68 290/ 25/ 31 N/A 12/ 9 8/260/ 9 BUOY 41010 1020 60 72 1023.1R ST AUGUSTINE FL 1100 38 54 290/ 6/ 7 1026.8R $$

USA.gov is the U.S. government's official web portal to all federal, state and local government web resources and services.